Regional Weather Roundup
Issued by NWS

Home | Current Version | Previous Version | Text Only | Print | Product List | Glossary On
Versions: 1 2 3 4 5 6 7 8 9 10 11 12 13 14 15 16 17 18 19 20 21 22 23 24 25 26 27 28 29 30 31 32 33 34 35 36 37 38 39 40 41 42 43 44 45 46 47 48 49 50
708
ASUS43 KDTX 231901
RWRMI
MICHIGAN HOURLY REGIONAL WEATHER ROUNDUP
NATIONAL WEATHER SERVICE DETROIT/PONTIAC MI
300 PM EDT THU MAR 23 2017

NOTE: "FAIR" INDICATES FEW OR NO CLOUDS BELOW 12,000 FEET WITH NO
SIGNIFICANT WEATHER AND/OR OBSTRUCTION TO VISIBILITY.

MIZ047>049-052>055-059>063-066>070-074>076-081>083-232000-
SOUTHEAST LOWER MICHIGAN

CITY           SKY/WX    TMP DP  RH WIND       PRES   REMARKS
ADRIAN         SUNNY     42  18  37 SE13G20   30.40F
ALMA           CLOUDY    40  14  34 S9        30.37F WCI  35
ANN ARBOR      SUNNY     41   8  25 E12       30.42F
BAD AXE        SUNNY     41  13  31 S16       30.41F
CARO           MOSUNNY   44   7  21 S15G22    30.39F
DETROIT CITY   SUNNY     40  14  34 E10       30.45F WCI  33
DETROIT        MOSUNNY   42   6  22 E12       30.44F
FLINT          MOSUNNY   42  13  30 S13       30.40
GROSSE ILE     SUNNY     39   9  28 SE7       30.44F WCI  34
HILLSDALE      SUNNY     43  10  26 SE15G23   30.34F
HOWELL         SUNNY     43   4  20 SE17      30.38F

CITY           SKY/WX    TMP DP  RH WIND       PRES   REMARKS
JACKSON        SUNNY     43  10  26 SE15G23   30.36F
LAMBERTVILLE   SUNNY     41  22  47 NE7       30.43F
LANSING        CLOUDY    42  10  27 SE17G23   30.36F
LAPEER         PTSUNNY   41  11  29 S14G21    30.41F
MASON          CLOUDY    42  17  37 SE12G20   30.37F
MONROE         SUNNY     38  20  48 E7        30.44F WCI  32
MT. CLEMENS    PTSUNNY   39  13  34 SE13G21   30.44F WCI  31
PONTIAC        MOSUNNY   41  11  29 SE12G20   30.40F
PORT HOPE        N/A     37  18  46 SE13G23   30.41F WCI  29
PORT HURON       N/A     39  12  33 SE14G20   30.45F WCI  31
TRI CITIES     PTSUNNY   42  12  29 S14G22    30.38F
MIDLAND        PTSUNNY   42  11  29 SE10      30.37F
TROY           SUNNY     42  10  27 E7        30.45F
SAGINAW HB     CLOUDY    43   1  17 SE14      30.38F
$$
MIZ043>046-050>051-056>058-064>065-071>073-077>080-232000-
SOUTHWEST LOWER MICHIGAN

CITY           SKY/WX    TMP DP  RH WIND       PRES   REMARKS
BATTLE CREEK   CLOUDY    46   8  21 S14G21    30.34F
BENTON HARBOR  PTSUNNY   43  13  29 SE17G23   30.31F
BIG RAPIDS     CLOUDY    37   8  30 S10       30.32F WCI  30
COLDWATER      CLOUDY    43  10  25 S12G18    30.36F
FREMONT        CLOUDY    40   9  27 S13G20    30.31F WCI  33
HOLLAND        CLOUDY    45   8  22 S18       30.32F
GRAND RAPIDS   CLOUDY    43  10  26 SE14      30.32F
IONIA          CLOUDY    42  13  31 SE17      30.34F
KALAMAZOO      MOSUNNY   45   5  19 S10G21    30.35F
LUDINGTON      CLOUDY    39  13  35 S14       30.29F WCI  31
MARSHALL       CLOUDY    44   9  23 SE13      30.35F
MOUNT PLEASANT CLOUDY    40  15  36 SE14      30.35F WCI  32
MUSKEGON       CLOUDY    43  12  28 S12G22    30.32F
SOUTH HAVEN    MOSUNNY   44   7  22 SE14G20   30.32F
$$
MIZ016>042-232000-
NORTHERN LOWER MICHIGAN

CITY           SKY/WX    TMP DP  RH WIND       PRES   REMARKS
ALPENA         CLOUDY    40  14  34 S17       30.35F WCI  31
BEAVER ISLAND  CLOUDY    36  15  41 S7        30.30F WCI  30
BELLAIRE       CLOUDY    40   5  23 S14G22    30.30F WCI  32
CADILLAC       CLOUDY    38  10  32 S14       30.28F WCI  30
CHARLEVOIX     CLOUDY    39  10  31 S3        30.32F
FRANKFORT      CLOUDY    40   4  22 S14G20    30.28F WCI  32
GAYLORD        CLOUDY    39   8  27 S13       30.28F WCI  31
GRAYLING       CLOUDY    37   9  30 SE9       30.31F WCI  31
HARBOR SPRINGS CLOUDY    39   8  27 S5        30.30F
HOUGHTON LAKE  CLOUDY    38   9  30 S14       30.32F WCI  30
MANISTEE       CLOUDY    40   7  25 S14       30.28F WCI  32
OSCODA         MOSUNNY   39  13  34 S16G22    30.40F WCI  30
PELLSTON       CLOUDY    39   8  27 SE8       30.30F WCI  33
ROGERS CITY    CLOUDY    39   9  28 S12       30.33F WCI  32
TRAVERSE CITY  CLOUDY    42   7  23 S12G17    30.29F
$$
MIZ007>008-015-232000-
EASTERN UPPER MICHIGAN

CITY           SKY/WX    TMP DP  RH WIND       PRES   REMARKS
KINROSS        CLOUDY    35  15  44 S14       30.30F WCI  26
MACKINAC ISLAN CLOUDY    36  14  40 S6        30.30F WCI  31
NEWBERRY       CLOUDY    32  20  61 S14G22    30.27F WCI  22
S. S. MARIE    CLOUDY    37  16  42 S8G17     30.30F WCI  31
MUNISING         N/A     35  27  72 S15G28    30.19F WCI  25
$$
MIZ004>006-011>014-085-232000-
CENTRAL UPPER MICHIGAN

CITY           SKY/WX    TMP DP  RH WIND       PRES   REMARKS
MANISTIQUE     CLOUDY    34  21  60 S15G23    30.27F WCI  24
ESCANABA       CLOUDY    34  28  79 S13       30.25F WCI  25
MENOMINEE        N/A    N/A N/A N/A MISG        N/A
SAWYER-GWINN   CLOUDY    32  23  69 S17G30    30.17F WCI  21
$$
MIZ001>003-009>011-084-232000-
WESTERN UPPER MICHIGAN

CITY           SKY/WX    TMP DP  RH WIND       PRES   REMARKS
IRON MOUNTAIN  CLOUDY    34  22  61 S12       30.15F WCI  25
HOUGHTON       CLOUDY    34  21  59 S18G28    30.08F WCI  23
COPPER HARBOR    N/A     34  25  69 SW14G24   30.09F WCI  25
IRONWOOD       CLOUDY    37  18  46 S14G24    30.03F WCI  28
$$

ABBREVIATIONS USED IN REMARKS
   TC - TEMPERATURE IN CELSIUS
  WCI - WIND CHILL INDEX
   HX - HEAT INDEX
  VSB - VISIBILITY





USA.gov is the U.S. government's official web portal to all federal, state and local government web resources and services.